Home   Weather   King's Lynn   Past weeks

Flag for United Kingdom Past Weather in King's Lynn, England, United Kingdom — Yesterday and Last 2 Weeks

Now
57 °F

Cool.


Feels Like: 54 °F
Forecast: 56 / 66 °F
Wind: 13 mph from Southwest

Location: Marham

Current Time: Sep 28, 2016 at 2:58:00 AM

Latest Report: Sep 28, 2016 at 1:50 AM


Visibility: N/A

Pressure: 30.18 "Hg

Humidity: 94%

Dew Point: 55 °F

Location of King's LynnLocation

Past Weather in King's Lynn — Graph

°F

King's Lynn Temperature Yesterday

Maximum temperature yesterday: 66 °F (at 12:50 PM)
Minimum temperature yesterday: 52 °F (at 2:50 AM)
Average temperature yesterday: 60 °F

High & Low Weather Summary for the Past Weeks

 TemperatureHumidityPressure
High88 °F (Sep 14, 12:50 PM)100% (Sep 15, 2:50 AM)30.24 "Hg (Sep 15, 2:50 AM)
Low45 °F (Sep 23, 3:50 AM)38% (Sep 14, 3:50 PM)29.77 "Hg (Sep 15, 3:50 PM)
Average62 °F81%30.03 "Hg
* Reported Sep 13 12:50 AM — Sep 28 12:50 AM, King's Lynn, Weather by CustomWeather, © 2016

Note: Actual official high and low records may vary slightly from our data, if they occured in-between our weather recording intervals... More about our weather records

Advertising

King's Lynn Weather History for the Previous 24 Hours

Scroll right to see more
 ConditionsComfort  
Time TempWeatherWind HumidityBarometerVisibility
12:50 AM
Wed, Sep 28
59 °FClear.9 mph94%30.15 "Hg10 mi
11:50 PM
Tue, Sep 27
61 °FClear.12 mph94%30.18 "Hg10 mi
10:50 PM61 °FClear.12 mph94%30.18 "Hg10 mi
9:50 PM63 °FPartly cloudy.8 mph88%30.18 "HgN/A
8:50 PM63 °FPartly cloudy.10 mph88%30.18 "HgN/A
7:50 PM63 °FPassing clouds.9 mph88%30.15 "HgN/A
6:50 PM64 °FPassing clouds.12 mph88%30.15 "HgN/A
5:50 PM64 °FPartly sunny.13 mph83%30.15 "HgN/A
4:50 PM66 °FLight rain. Partly sunny.15 mph78%30.15 "HgN/A
3:50 PM66 °FPartly sunny.15 mph73%30.12 "HgN/A
2:50 PM66 °FPartly sunny.18 mph73%30.12 "HgN/A
1:50 PM66 °FBroken clouds.20 mph73%30.12 "HgN/A
12:50 PM66 °FBroken clouds.21 mph68%30.15 "HgN/A
11:50 AM64 °FBroken clouds.22 mph73%30.15 "HgN/A
10:50 AM64 °FPartly sunny.21 mph73%30.15 "HgN/A
9:50 AM63 °FScattered clouds.16 mph73%30.12 "HgN/A
8:50 AM59 °FBroken clouds.13 mph77%30.15 "HgN/A
7:50 AM55 °FSunny.10 mph82%30.15 "Hg10 mi
6:50 AM52 °FClear.9 mph94%30.15 "Hg10 mi
5:50 AM52 °FClear.10 mph94%30.15 "Hg10 mi
4:50 AM54 °FClear.9 mph94%30.15 "Hg10 mi
3:50 AM54 °FCool.9 mph88%30.15 "HgN/A
2:50 AM52 °FCool.8 mph94%30.18 "HgN/A
Weather by CustomWeather, © 2016

See weather overviewHow to use our weather pages